[[{"header":{"parameterUnit":"m.s-1","parameterCategory":1,"la1":30.2991,"la2":30.254,"lo1":-89.0895,"lo2":-89.0444,"dy":0.0017,"dx":0.0017,"nx":28,"ny":28,"refTime":"2025-08-25T21:00:00:Z","depth":0,"parameterNumber":2,"parameterNumberName":"U-component_of_WINDS"},"data":[0,0,0,0,0,0,0,0,0,0,0,0,0,0,0,0,0,0,0,0,0,0,0,0,0,0,0,0,0,0,0,0,0,0,0,0,0,0,0,0,0,0,0,0,0,0,0,0,0,0,0,0,0,0,0,0,0,0,-4.1781,-4.1781,0,-4.1786,-4.1786,-4.1786,-4.1632,-4.1628,-4.1624,-4.162,-4.1627,-4.1631,-4.1635,0,0,0,0,0,0,0,0,0,0,0,0,0,-4.1639,-4.1642,-4.1781,-4.1781,-4.1781,-4.1786,-4.1786,-4.1786,-4.1633,-4.1628,-4.1623,-4.1618,-4.1626,-4.163,-4.1635,0,0,0,0,0,0,0,0,0,0,0,0,0,-4.1678,-4.1643,-4.1781,-4.1705,-4.1698,-4.1786,-4.1786,-4.1786,-4.1634,-4.1627,-4.1621,-4.1616,-4.1624,-4.163,-4.1636,-4.1797,0,0,-4.1654,-4.1657,0,0,0,0,0,0,0,0,-4.1676,-4.1683,-4.1716,-4.171,-4.1703,-4.1702,-4.1738,-4.179,-4.1635,-4.1658,-4.162,-4.1612,-4.1657,-4.166,-4.1675,-4.1797,-4.1798,-4.1655,-4.1659,-4.1661,-4.1663,0,0,0,0,0,0,0,-4.1673,-4.1682,-4.1783,-4.1717,-4.1709,-4.1671,-4.1669,-4.1747,-4.1692,-4.1656,-4.1645,-4.1647,-4.1652,-4.1669,-4.1674,-4.1798,-4.1655,-4.166,-4.1664,-4.1666,-4.2051,-4.2058,0,0,0,0,0,0,-4.1681,-4.1681,-4.1783,-4.1783,-4.1674,-4.1678,-4.1677,-4.1709,-4.1691,-4.1682,-4.1652,-4.164,-4.1662,-4.1667,-4.1673,-4.186,-4.1661,-4.1667,-4.167,-4.2045,-4.2053,-4.206,0,0,0,0,0,0,-4.1678,-4.1691,-4.1782,-4.1729,-4.1738,-4.1687,-4.1724,-4.1712,-4.1728,-4.1688,-4.1678,-4.168,-4.1657,-4.1665,-4.1767,-4.1858,-4.167,-4.1675,-4.2037,-4.2047,-4.2056,-4.2235,0,0,0,0,0,0,-4.1675,-4.1691,-4.1752,-4.1731,-4.1741,-4.1877,-4.173,-4.1716,-4.1739,-4.1723,-4.1711,-4.1704,-4.1653,-4.1759,-4.1773,-4.1863,-4.168,-4.2029,-4.2042,-4.2053,-4.2221,-4.225,-4.2275,0,0,0,0,0,-4.167,-4.1803,-4.1756,-4.1769,-4.1816,-4.1882,-4.1887,-4.1826,-4.1747,-4.1808,-4.1782,-4.1704,-4.1846,-4.1771,-4.1785,-4.1878,-4.2023,-4.2038,-4.2052,-4.2209,-4.2244,-4.2274,0,0,0,0,0,0,-4.1837,-4.1799,-4.1746,-4.1876,-4.1884,-4.1856,-4.193,-4.1866,-4.1896,-4.188,-4.1802,-4.1801,-4.1916,-4.1907,-4.1824,-4.2033,-4.192,-4.1939,-4.2034,-4.2068,-4.2094,-4.2094,-4.1685,0,0,0,0,0,-4.1889,-4.1945,-4.1909,-4.2027,-4.2033,-4.1982,-4.2008,-4.196,-4.1965,-4.1967,-4.1948,-4.1956,-4.2002,-4.2034,-4.2074,-4.2219,-4.2214,-4.229,-4.2317,-4.2339,-4.2356,-4.2431,-4.2464,-4.2109,-4.2109,-4.2108,0,0,-4.1997,-4.1983,-4.2023,-4.206,-4.206,-4.212,-4.1985,-4.2055,-4.2099,-4.1978,-4.2073,-4.206,-4.2063,-4.2187,-4.224,-4.2183,-4.2453,-4.2358,-4.2376,-4.2381,-4.245,-4.2483,-4.2513,-4.2119,-4.2117,-4.2115,0,0,-4.2223,-4.2219,-4.2316,-4.2318,-4.2319,-4.2284,-4.2307,-4.2289,-4.2276,-4.2369,-4.2279,-4.233,-4.2412,-4.2417,-4.2431,-4.2659,-4.2588,-4.2674,-4.2815,-4.2889,-4.2917,-4.2941,-4.3022,-4.3052,-4.2691,-4.2692,-4.2692,0,-4.2357,-4.2444,-4.2375,-4.245,-4.2469,-4.236,-4.2458,-4.2463,-4.2479,-4.2494,-4.2429,-4.2528,-4.2523,-4.2646,-4.2701,-4.2716,-4.274,-4.2675,-4.2918,-4.2942,-4.2964,-4.304,-4.3071,-4.2702,-4.2701,-4.27,-4.2699,0,-4.2608,-4.267,-4.2748,-4.2764,-4.2791,-4.2878,-4.2821,-4.2857,-4.2807,-4.2778,-4.2875,-4.2864,-4.29,-4.2925,-4.2877,-4.3042,-4.3006,-4.2932,-4.2817,-4.3009,-4.3079,-4.3108,-4.2717,-4.2713,-4.271,-4.2707,0,0,-4.2942,-4.2916,-4.2946,-4.2951,-4.2944,-4.299,-4.3071,-4.3105,-4.3138,-4.3151,-4.3217,-4.3287,-4.3218,-4.3233,-4.3184,-4.3249,-4.3429,-4.3166,-4.3164,-4.3215,-4.3609,-4.3666,-4.3701,-4.3382,-4.3387,-4.3392,-4.3609,0,-4.3162,-4.3298,-4.3237,-4.338,-4.3436,-4.3333,-4.3403,-4.3406,-4.3382,-4.3425,-4.3398,-4.3449,-4.3353,-4.3362,-4.3421,-4.3395,-4.3508,-4.3378,-4.3443,-4.3446,-4.3445,-4.3737,-4.3797,-4.4003,-4.3636,-4.3641,-4.3644,0,-4.3437,-4.346,-4.3609,-4.3589,-4.361,-4.3675,-4.37,-4.3743,-4.3745,-4.3722,-4.3739,-4.3675,-4.3753,-4.3639,-4.3745,-4.3659,-4.3682,-4.3673,-4.3679,-4.3683,-4.3557,-4.3749,-4.4067,-4.4098,-4.3687,-4.3683,-4.368,0,-4.3664,-4.3733,-4.383,-4.3838,-4.3818,-4.3866,-4.386,-4.3855,-4.3879,-4.3901,-4.3916,-4.3948,-4.3965,-4.3992,-4.3938,-4.386,-4.4052,-4.3933,-4.4035,-4.4037,-4.408,-4.4078,-4.4407,-4.4096,-4.4095,-4.4095,-4.4094,0,-4.3916,-4.4011,-4.3932,-4.3992,-4.4095,-4.4024,-4.4127,-4.411,-4.4107,-4.4161,-4.4075,-4.4128,-4.4053,-4.41,-4.4058,-4.4152,-4.4161,-4.4145,-4.4133,-4.4153,-4.4155,-4.4166,-4.4151,-4.4103,-4.4101,-4.4099,-4.4098,0,-4.4188,-4.4139,-4.4238,-4.4211,-4.4206,-4.4283,-4.426,-4.4314,-4.4282,-4.4353,-4.4365,-4.4317,-4.4366,-4.4315,-4.4362,-4.4333,-4.446,-4.4427,-4.446,-4.445,-4.4554,-4.4545,-4.4902,-4.4945,-4.4607,-4.461,-4.4613,0,-4.4352,-4.4422,-4.4402,-4.4432,-4.4431,-4.4481,-4.4504,-4.4436,-4.4464,-4.447,-4.4524,-4.4566,-4.4596,-4.468,-4.4649,-4.4684,-4.4651,-4.4773,-4.4656,-4.4673,-4.4652,-4.4649,-4.4655,-4.4798,-4.4802,-4.4805,-4.4808,0,-4.4648,-4.462,-4.4656,-4.4685,-4.4715,-4.4734,-4.4747,-4.4776,-4.4706,-4.4742,-4.4791,-4.4814,-4.4861,-4.4904,-4.4929,-4.4923,-4.4855,-4.4845,-4.487,-4.4891,-4.4907,-4.4899,-4.4525,-4.4837,-4.4834,-4.4832,-4.483,-4.4829,-4.487,-4.4927,-4.4922,-4.4965,-4.4967,-4.498,-4.503,-4.5004,-4.5043,-4.5075,-4.5033,-4.5094,-4.5092,-4.5119,-4.5121,-4.5167,-4.5115,-4.5152,-4.5161,-4.5171,-4.5187,-4.49,-4.5172,-4.5171,-4.517,-4.5169,-4.5168,0,-4.5161,-4.5152,-4.5192,-4.5212,-4.5246,-4.5177,-4.5187,-4.522,-4.5274,-4.5278,-4.5309,-4.5365,-4.5406,-4.5378,-4.5412,-4.5455,-4.5424,-4.5466,-4.5462,-4.5462,-4.5231,-4.5206,-4.549,-4.549,-4.549,-4.549,-4.549,-4.549,-4.5317,-4.5409,-4.538,-4.5473,-4.5462,-4.552,-4.5532,-4.5544,-4.5546,-4.5612,-4.5645,-4.5626,-4.5617,-4.565,-4.5684,-4.5674,-4.5691,-4.5745,-4.5724,-4.551,-4.5478,-4.5448,-4.5423,-4.5749,-4.5749,-4.595,-4.5952,-4.5954]},{"header":{"parameterUnit":"m.s-1","parameterCategory":1,"la1":30.2991,"la2":30.254,"lo1":-89.0895,"lo2":-89.0444,"dy":0.0017,"dx":0.0017,"nx":28,"ny":28,"refTime":"2025-08-25T21:00:00:Z","depth":0,"parameterNumber":3,"parameterNumberName":"V-component_of_WINDS"},"data":[0,0,0,0,0,0,0,0,0,0,0,0,0,0,0,0,0,0,0,0,0,0,0,0,0,0,0,0,0,0,0,0,0,0,0,0,0,0,0,0,0,0,0,0,0,0,0,0,0,0,0,0,0,0,0,0,0,0,-3.7825,-3.7826,0,-3.7896,-3.7897,-3.7898,-3.7881,-3.788,-3.7878,-3.7877,-3.7946,-3.7949,-3.7952,0,0,0,0,0,0,0,0,0,0,0,0,0,-3.7668,-3.7671,-3.7825,-3.7826,-3.7827,-3.7896,-3.7897,-3.7898,-3.7881,-3.788,-3.7878,-3.7876,-3.7945,-3.7949,-3.7952,0,0,0,0,0,0,0,0,0,0,0,0,0,-3.7738,-3.7672,-3.7825,-3.7827,-3.7828,-3.7896,-3.7897,-3.7898,-3.7882,-3.7879,-3.7877,-3.7876,-3.7944,-3.7948,-3.7953,-3.8023,0,0,-3.7967,-3.7969,0,0,0,0,0,0,0,0,-3.7734,-3.7743,-3.7825,-3.7827,-3.7828,-3.7878,-3.7867,-3.794,-3.7882,-3.7861,-3.7877,-3.7875,-3.7925,-3.7931,-3.7949,-3.8026,-3.8029,-3.7968,-3.797,-3.7972,-3.7974,0,0,0,0,0,0,0,-3.7729,-3.774,-3.7853,-3.7827,-3.7828,-3.7822,-3.783,-3.7881,-3.7903,-3.7863,-3.7862,-3.787,-3.7925,-3.7944,-3.795,-3.803,-3.7967,-3.7972,-3.7974,-3.7976,-3.8165,-3.8167,0,0,0,0,0,0,-3.7724,-3.7736,-3.7851,-3.7855,-3.7775,-3.7827,-3.7835,-3.7864,-3.7903,-3.7907,-3.7872,-3.7869,-3.7937,-3.7945,-3.7952,-3.8034,-3.7972,-3.7977,-3.7979,-3.8162,-3.8165,-3.8167,0,0,0,0,0,0,-3.772,-3.7734,-3.7848,-3.7795,-3.7809,-3.7832,-3.7864,-3.7866,-3.7885,-3.791,-3.7913,-3.7888,-3.7936,-3.7946,-3.8005,-3.8037,-3.7979,-3.7983,-3.816,-3.8163,-3.8166,-3.82,0,0,0,0,0,0,-3.7716,-3.7733,-3.7761,-3.7796,-3.7812,-3.7901,-3.7866,-3.7869,-3.7894,-3.7891,-3.7926,-3.7929,-3.7935,-3.7998,-3.8009,-3.8042,-3.7987,-3.8157,-3.8161,-3.8165,-3.8197,-3.8205,-3.8211,0,0,0,0,0,-3.7711,-3.7768,-3.7763,-3.7777,-3.7848,-3.7903,-3.7912,-3.7918,-3.7897,-3.7924,-3.7939,-3.7928,-3.8032,-3.8004,-3.8017,-3.8051,-3.8155,-3.816,-3.8165,-3.8193,-3.8203,-3.8211,0,0,0,0,0,0,-3.7735,-3.7772,-3.7767,-3.7838,-3.7867,-3.79,-3.7935,-3.7929,-3.7964,-3.796,-3.7965,-3.7973,-3.8032,-3.8048,-3.8017,-3.8119,-3.809,-3.8098,-3.8107,-3.8117,-3.8124,-3.8118,-3.7991,0,0,0,0,0,-3.7749,-3.7792,-3.7821,-3.7881,-3.7896,-3.7913,-3.7937,-3.7939,-3.7969,-3.7981,-3.8001,-3.8029,-3.8068,-3.8093,-3.813,-3.8199,-3.8205,-3.8229,-3.8236,-3.8242,-3.8248,-3.8283,-3.8293,-3.8184,-3.8184,-3.8184,0,0,-3.7777,-3.7803,-3.783,-3.7886,-3.7909,-3.7951,-3.7923,-3.797,-3.8,-3.7988,-3.8045,-3.806,-3.8092,-3.8155,-3.8184,-3.817,-3.828,-3.8248,-3.8253,-3.8256,-3.8289,-3.8299,-3.8309,-3.8187,-3.8186,-3.8186,0,0,-3.785,-3.7875,-3.7926,-3.795,-3.7985,-3.7996,-3.8008,-3.8042,-3.8051,-3.8109,-3.81,-3.8135,-3.8202,-3.8225,-3.8245,-3.8325,-3.8315,-3.8336,-3.8375,-3.8408,-3.8417,-3.8425,-3.8451,-3.846,-3.8343,-3.8343,-3.8343,0,-3.7881,-3.7946,-3.7953,-3.8,-3.8024,-3.8015,-3.8065,-3.8088,-3.8133,-3.8149,-3.8133,-3.8215,-3.8236,-3.8303,-3.8323,-3.834,-3.8352,-3.8332,-3.8416,-3.8423,-3.843,-3.8455,-3.8466,-3.8345,-3.8345,-3.8345,-3.8344,0,-3.798,-3.8025,-3.8062,-3.8106,-3.8134,-3.8183,-3.8195,-3.8223,-3.8222,-3.8234,-3.829,-3.8315,-3.8356,-3.8373,-3.8372,-3.8439,-3.8429,-3.8414,-3.8385,-3.8443,-3.8466,-3.8476,-3.8348,-3.8348,-3.8347,-3.8346,0,0,-3.8071,-3.8118,-3.8131,-3.815,-3.8188,-3.8222,-3.8269,-3.831,-3.8332,-3.8363,-3.8401,-3.8457,-3.8443,-3.8466,-3.8468,-3.8498,-3.8556,-3.8479,-3.848,-3.8491,-3.8629,-3.8638,-3.865,-3.8551,-3.8553,-3.8554,-3.8625,0,-3.8146,-3.823,-3.8237,-3.8311,-3.8351,-3.8343,-3.8383,-3.841,-3.8422,-3.8456,-3.8468,-3.8507,-3.8487,-3.85,-3.853,-3.8543,-3.8584,-3.8538,-3.8584,-3.8585,-3.8574,-3.8662,-3.8673,-3.8739,-3.8635,-3.8636,-3.8638,0,-3.8245,-3.8279,-3.8358,-3.8388,-3.8405,-3.8442,-3.8478,-3.8512,-3.8541,-3.8547,-3.8572,-3.8569,-3.8615,-3.8584,-3.8646,-3.8615,-3.8633,-3.8643,-3.8645,-3.8649,-3.8614,-3.8666,-3.8761,-3.877,-3.8653,-3.8651,-3.865,0,-3.83,-3.8366,-3.8422,-3.8438,-3.8476,-3.8501,-3.8518,-3.8545,-3.8568,-3.86,-3.8614,-3.8651,-3.867,-3.8697,-3.8704,-3.8681,-3.8764,-3.8735,-3.8768,-3.8768,-3.8785,-3.8784,-3.8883,-3.8801,-3.88,-3.88,-3.88,0,-3.8382,-3.843,-3.8447,-3.8481,-3.8533,-3.854,-3.8591,-3.8606,-3.8629,-3.8664,-3.8659,-3.8691,-3.8699,-3.8732,-3.8737,-3.8786,-3.8795,-3.88,-3.88,-3.8799,-3.8798,-3.8811,-3.8805,-3.8803,-3.8802,-3.8802,-3.8801,0,-3.8453,-3.8466,-3.8525,-3.8556,-3.8564,-3.8602,-3.8627,-3.8658,-3.8669,-3.8712,-3.8723,-3.8739,-3.8778,-3.8787,-3.8834,-3.8837,-3.8894,-3.8891,-3.8884,-3.8883,-3.8916,-3.8912,-3.9025,-3.9039,-3.8949,-3.895,-3.8951,0,-3.8503,-3.854,-3.8574,-3.8598,-3.8616,-3.8654,-3.8677,-3.8685,-3.8709,-3.8744,-3.877,-3.8808,-3.8839,-3.8901,-3.8916,-3.895,-3.8947,-3.8984,-3.8952,-3.8949,-3.8945,-3.8942,-3.8944,-3.8989,-3.899,-3.8991,-3.8992,0,-3.8591,-3.8596,-3.8631,-3.8668,-3.8697,-3.8726,-3.8754,-3.8773,-3.8784,-3.8811,-3.8851,-3.8875,-3.8922,-3.8959,-3.8993,-3.9008,-3.9001,-3.9002,-3.9011,-3.901,-3.9003,-3.9005,-3.8899,-3.8999,-3.8998,-3.8998,-3.8997,-3.8997,-3.8652,-3.8683,-3.8712,-3.8751,-3.8772,-3.8798,-3.8829,-3.8843,-3.8877,-3.8916,-3.8918,-3.8961,-3.8986,-3.9032,-3.9049,-3.9081,-3.9069,-3.9083,-3.9086,-3.9089,-3.9091,-3.9,-3.9087,-3.9087,-3.9087,-3.9087,-3.9086,0,-3.8737,-3.8755,-3.8791,-3.883,-3.886,-3.8852,-3.8882,-3.8907,-3.8945,-3.897,-3.9001,-3.9045,-3.9081,-3.9098,-3.9133,-3.9155,-3.9152,-3.9164,-3.9161,-3.9164,-3.91,-3.9088,-3.9165,-3.9165,-3.9165,-3.9165,-3.9165,-3.9165,-3.8785,-3.8837,-3.8845,-3.8906,-3.8923,-3.8966,-3.8983,-3.9006,-3.9026,-3.9076,-3.9106,-3.9118,-3.9139,-3.9175,-3.9206,-3.921,-3.9222,-3.9235,-3.9237,-3.9177,-3.9169,-3.9161,-3.9149,-3.9238,-3.9238,-3.9298,-3.9298,-3.9299]}]]